Location: Unspecified
(40.9833°N, 0.0000°E)
Time: 13:06:09
(UTC+00:00)

Envisat - Visible Passes

Search period start: 17 October 2019 00:00
Search period end: 27 October 2019 00:00
Orbit: 764 x 766 km, 98.1° (Epoch: 17 October)

Date Brightness Start Highest point End Pass type
(mag) Time Alt. Az. Time Alt. Az. Time Alt. Az.
17 Oct 3.1 17:41:49 10° SSE 17:46:45 55° ENE 17:51:43 10° N visible
17 Oct 5.8 19:22:49 10° SW 19:26:06 17° W 19:29:24 10° NW visible
18 Oct 4.5 18:44:21 10° SSW 18:49:03 38° W 18:53:47 10° NNW visible
19 Oct 3.1 18:07:07 10° SSE 18:12:12 86° WSW 18:17:19 10° NNW visible
20 Oct 5.5 19:10:51 10° SW 19:14:44 22° W 19:18:38 10° NW visible
21 Oct 6.3 05:41:08 10° NE 05:44:00 15° E 05:46:52 10° SE visible
21 Oct 4.0 18:32:51 10° S 18:37:44 48° W 18:42:40 10° NNW visible
22 Oct 2.9 17:55:54 10° SSE 18:00:57 76° ENE 18:06:03 10° N visible
22 Oct 6.2 19:38:34 10° WSW 19:40:31 12° W 19:42:28 10° WNW visible
23 Oct 5.1 18:59:05 10° SSW 19:03:23 27° W 19:07:42 10° NW visible
24 Oct 6.6 05:30:57 10° ENE 05:32:36 11° E 05:34:16 10° ESE visible
24 Oct 3.5 18:21:26 10° S 18:26:27 62° W 18:31:30 10° NNW visible
25 Oct 3.0 17:44:44 10° SSE 17:49:43 60° ENE 17:54:43 10° N visible
25 Oct 5.9 19:26:07 10° SW 19:29:07 16° W 19:32:08 10° NW visible
26 Oct 6.0 05:54:36 10° NE 05:58:24 21° E 06:02:11 10° SE visible
26 Oct 4.7 18:47:27 10° SSW 18:52:03 35° W 18:56:41 10° NNW visible
